Time,TemperatureF,DewpointF,PressureIn,WindDirection,WindDirectionDegrees,WindSpeedMPH,WindSpeedGustMPH,Humidity,HourlyPrecipIn,Conditions,Clouds,dailyrainin,SoftwareType,DateUTC
2013-04-29 00:03:00,46.1,3.6,30.16,NW,313,0.0,0.0,17,0.00,,,0.00,Wunderground v.1.13,2013-04-29 04:03:00,
2013-04-29 00:07:00,46.0,7.1,30.16,NW,313,0.0,0.0,20,0.00,,,0.00,Wunderground v.1.13,2013-04-29 04:07:00,
2013-04-29 00:12:00,45.7,7.9,30.16,NW,313,0.0,0.0,21,0.00,,,0.00,Wunderground v.1.13,2013-04-29 04:12:00,
2013-04-29 00:17:00,45.5,8.8,30.16,NW,313,0.0,0.0,22,0.00,,,0.00,Wunderground v.1.13,2013-04-29 04:17:00,
2013-04-29 00:22:00,45.4,12.5,30.16,NW,313,0.0,0.0,26,0.00,,,0.00,Wunderground v.1.13,2013-04-29 04:22:00,
2013-04-29 00:27:00,45.2,13.1,30.16,NW,313,0.0,0.0,27,0.00,,,0.00,Wunderground v.1.13,2013-04-29 04:27:00,
2013-04-29 00:32:00,45.1,13.9,30.16,NW,313,0.0,0.0,28,0.00,,,0.00,Wunderground v.1.13,2013-04-29 04:32:00,
2013-04-29 00:37:00,44.9,14.5,30.16,NW,313,0.0,0.0,29,0.00,,,0.00,Wunderground v.1.13,2013-04-29 04:37:00,
2013-04-29 00:42:00,44.8,15.2,30.16,NW,313,0.0,0.0,30,0.00,,,0.00,Wunderground v.1.13,2013-04-29 04:42:00,
2013-04-29 00:47:00,44.6,15.0,30.16,NW,313,0.0,0.0,30,0.00,,,0.00,Wunderground v.1.13,2013-04-29 04:47:00,
2013-04-29 00:52:00,44.5,17.1,30.16,NW,313,0.0,0.0,33,0.00,,,0.00,Wunderground v.1.13,2013-04-29 04:52:00,
2013-04-29 00:57:00,44.3,17.7,30.16,NW,313,0.0,0.0,34,0.00,,,0.00,Wunderground v.1.13,2013-04-29 04:57:00,
2013-04-29 01:03:00,44.2,17.6,30.16,NW,313,0.0,0.0,34,0.00,,,0.00,Wunderground v.1.13,2013-04-29 05:03:00,
2013-04-29 01:07:00,44.1,18.2,30.16,NW,313,0.0,0.0,35,0.00,,,0.00,Wunderground v.1.13,2013-04-29 05:07:00,
2013-04-29 01:12:00,43.9,19.3,30.16,NW,313,0.0,0.0,37,0.00,,,0.00,Wunderground v.1.13,2013-04-29 05:12:00,
2013-04-29 01:17:00,43.8,19.2,30.16,NW,313,0.0,0.0,37,0.00,,,0.00,Wunderground v.1.13,2013-04-29 05:17:00,
2013-04-29 01:22:00,43.6,20.8,30.15,NW,313,0.0,0.0,40,0.00,,,0.00,Wunderground v.1.13,2013-04-29 05:22:00,
2013-04-29 01:27:00,43.5,20.2,30.15,NW,313,0.0,0.0,39,0.00,,,0.00,Wunderground v.1.13,2013-04-29 05:27:00,
2013-04-29 01:37:00,43.3,22.3,30.15,NW,313,0.0,0.0,43,0.00,,,0.00,Wunderground v.1.13,2013-04-29 05:37:00,
2013-04-29 01:42:00,43.2,22.2,30.15,NW,313,0.0,0.0,43,0.00,,,0.00,Wunderground v.1.13,2013-04-29 05:42:00,
2013-04-29 01:47:00,43.2,22.7,30.15,NW,313,0.0,0.0,44,0.00,,,0.00,Wunderground v.1.13,2013-04-29 05:47:00,
2013-04-29 01:52:00,43.1,22.1,30.15,NW,313,0.0,0.0,43,0.00,,,0.00,Wunderground v.1.13,2013-04-29 05:52:00,
2013-04-29 01:57:00,42.8,22.4,30.15,NW,313,0.0,0.0,44,0.00,,,0.00,Wunderground v.1.13,2013-04-29 05:57:00,
2013-04-29 02:02:00,42.6,22.7,30.15,NW,313,0.0,0.0,45,0.00,,,0.00,Wunderground v.1.13,2013-04-29 06:02:00,
2013-04-29 02:12:00,42.3,22.4,30.15,NW,313,0.0,0.0,45,0.00,,,0.00,Wunderground v.1.13,2013-04-29 06:12:00,
2013-04-29 02:17:00,42.2,22.4,30.15,NW,313,0.0,0.0,45,0.00,,,0.00,Wunderground v.1.13,2013-04-29 06:17:00,
2013-04-29 02:27:00,42.1,22.8,30.14,NW,313,0.0,0.0,46,0.00,,,0.00,Wunderground v.1.13,2013-04-29 06:27:00,
2013-04-29 02:32:00,42.1,22.3,30.14,NW,313,0.0,0.0,45,0.00,,,0.00,Wunderground v.1.13,2013-04-29 06:32:00,
2013-04-29 02:37:00,42.1,22.3,30.14,NW,313,0.0,0.0,45,0.00,,,0.00,Wunderground v.1.13,2013-04-29 06:37:00,
2013-04-29 02:42:00,42.1,22.3,30.14,NW,313,0.0,0.0,45,0.00,,,0.00,Wunderground v.1.13,2013-04-29 06:42:00,
2013-04-29 02:47:00,42.1,22.8,30.14,NW,313,0.0,0.0,46,0.00,,,0.00,Wunderground v.1.13,2013-04-29 06:47:00,
2013-04-29 02:52:00,41.9,23.1,30.14,NW,313,0.0,0.0,47,0.00,,,0.00,Wunderground v.1.13,2013-04-29 06:52:00,
2013-04-29 02:57:00,41.8,23.5,30.14,NW,313,0.0,0.0,48,0.00,,,0.00,Wunderground v.1.13,2013-04-29 06:57:00,
2013-04-29 03:02:00,41.8,24.5,30.14,NW,313,0.0,0.0,50,0.00,,,0.00,Wunderground v.1.13,2013-04-29 07:02:00,
2013-04-29 03:07:00,41.6,24.8,30.14,NW,313,0.0,0.0,51,0.00,,,0.00,Wunderground v.1.13,2013-04-29 07:07:00,
2013-04-29 03:17:00,41.5,26.5,30.14,NW,313,0.0,0.0,55,0.00,,,0.00,Wunderground v.1.13,2013-04-29 07:17:00,
2013-04-29 03:22:00,41.6,27.5,30.14,NW,313,0.0,0.0,57,0.00,,,0.00,Wunderground v.1.13,2013-04-29 07:22:00,
2013-04-29 03:27:00,41.6,27.9,30.14,NW,313,0.0,0.0,58,0.00,,,0.00,Wunderground v.1.13,2013-04-29 07:27:00,
2013-04-29 03:32:00,41.5,28.2,30.14,NW,313,0.0,0.0,59,0.00,,,0.00,Wunderground v.1.13,2013-04-29 07:32:00,
2013-04-29 03:37:00,41.5,29.4,30.14,NW,313,0.0,0.0,62,0.00,,,0.00,Wunderground v.1.13,2013-04-29 07:37:00,
2013-04-29 03:42:00,41.5,29.8,30.14,NW,313,0.0,0.0,63,0.00,,,0.00,Wunderground v.1.13,2013-04-29 07:42:00,
2013-04-29 03:47:00,41.5,30.2,30.14,NW,313,0.0,0.0,64,0.00,,,0.00,Wunderground v.1.13,2013-04-29 07:47:00,
2013-04-29 03:52:00,41.3,30.4,30.14,NW,313,0.0,0.0,65,0.00,,,0.00,Wunderground v.1.13,2013-04-29 07:52:00,
2013-04-29 03:57:00,41.3,30.4,30.14,NW,313,0.0,0.0,65,0.00,,,0.00,Wunderground v.1.13,2013-04-29 07:57:00,
2013-04-29 04:02:00,41.3,30.4,30.14,NW,313,0.0,0.0,65,0.00,,,0.00,Wunderground v.1.13,2013-04-29 08:02:00,
2013-04-29 04:07:00,41.3,30.0,30.14,NW,313,0.0,0.0,64,0.00,,,0.00,Wunderground v.1.13,2013-04-29 08:07:00,
2013-04-29 04:12:00,41.2,29.9,30.14,NW,313,0.0,0.0,64,0.00,,,0.00,Wunderground v.1.13,2013-04-29 08:12:00,
2013-04-29 04:22:00,41.1,29.1,30.15,NW,313,0.0,0.0,62,0.00,,,0.00,Wunderground v.1.13,2013-04-29 08:22:00,
2013-04-29 04:27:00,41.1,29.8,30.15,NW,313,0.0,0.0,64,0.00,,,0.00,Wunderground v.1.13,2013-04-29 08:27:00,
2013-04-29 04:32:00,41.1,30.6,30.15,NW,313,0.0,0.0,66,0.00,,,0.00,Wunderground v.1.13,2013-04-29 08:32:00,
2013-04-29 04:37:00,40.9,30.0,30.15,NW,313,0.0,0.0,65,0.00,,,0.00,Wunderground v.1.13,2013-04-29 08:37:00,
2013-04-29 04:42:00,40.9,30.0,30.15,NW,313,0.0,0.0,65,0.00,,,0.00,Wunderground v.1.13,2013-04-29 08:42:00,
2013-04-29 04:47:00,40.8,29.9,30.15,NW,313,0.0,0.0,65,0.00,,,0.00,Wunderground v.1.13,2013-04-29 08:47:00,
2013-04-29 04:52:00,40.6,29.7,30.15,NW,313,0.0,0.0,65,0.00,,,0.00,Wunderground v.1.13,2013-04-29 08:52:00,
2013-04-29 04:57:00,40.6,29.7,30.15,NW,313,0.0,0.0,65,0.00,,,0.00,Wunderground v.1.13,2013-04-29 08:57:00,
2013-04-29 05:03:00,40.5,30.0,30.15,NW,313,0.0,0.0,66,0.00,,,0.00,Wunderground v.1.13,2013-04-29 09:03:00,
2013-04-29 05:12:00,40.3,30.9,30.15,NW,313,0.0,0.0,69,0.00,,,0.00,Wunderground v.1.13,2013-04-29 09:12:00,
2013-04-29 05:17:00,40.2,31.2,30.15,NW,313,0.0,0.0,70,0.00,,,0.00,Wunderground v.1.13,2013-04-29 09:17:00,
2013-04-29 05:22:00,40.1,31.4,30.15,NW,313,0.0,0.0,71,0.00,,,0.00,Wunderground v.1.13,2013-04-29 09:22:00,
2013-04-29 05:27:00,40.1,31.8,30.15,NW,313,0.0,0.0,72,0.00,,,0.00,Wunderground v.1.13,2013-04-29 09:27:00,
2013-04-29 05:32:00,39.9,31.9,30.15,NW,313,0.0,0.0,73,0.00,,,0.00,Wunderground v.1.13,2013-04-29 09:32:00,
2013-04-29 05:37:00,39.8,32.5,30.15,NW,313,0.0,0.0,75,0.00,,,0.00,Wunderground v.1.13,2013-04-29 09:37:00,
2013-04-29 05:42:00,39.8,32.8,30.15,NW,313,0.0,0.0,76,0.00,,,0.00,Wunderground v.1.13,2013-04-29 09:42:00,
2013-04-29 05:47:00,39.6,33.0,30.15,NW,313,0.0,0.0,77,0.00,,,0.00,Wunderground v.1.13,2013-04-29 09:47:00,
2013-04-29 05:52:00,39.5,32.9,30.15,NW,313,0.0,0.0,77,0.00,,,0.00,Wunderground v.1.13,2013-04-29 09:52:00,
2013-04-29 05:57:00,39.5,33.2,30.15,NW,313,0.0,0.0,78,0.00,,,0.00,Wunderground v.1.13,2013-04-29 09:57:00,
2013-04-29 06:02:00,39.3,33.3,30.15,NW,313,0.0,0.0,79,0.00,,,0.00,Wunderground v.1.13,2013-04-29 10:02:00,
2013-04-29 06:07:00,39.3,33.6,30.16,NW,313,0.0,0.0,80,0.00,,,0.00,Wunderground v.1.13,2013-04-29 10:07:00,
2013-04-29 06:12:00,39.3,34.0,30.16,NW,313,0.0,0.0,81,0.00,,,0.00,Wunderground v.1.13,2013-04-29 10:12:00,
2013-04-29 06:17:00,39.3,34.3,30.16,NW,313,0.0,0.0,82,0.00,,,0.00,Wunderground v.1.13,2013-04-29 10:17:00,
2013-04-29 06:22:00,39.3,34.3,30.17,NW,313,0.0,0.0,82,0.00,,,0.00,Wunderground v.1.13,2013-04-29 10:22:00,
2013-04-29 06:27:00,39.5,34.8,30.17,NW,313,0.0,0.0,83,0.00,,,0.00,Wunderground v.1.13,2013-04-29 10:27:00,
2013-04-29 06:32:00,39.3,34.3,30.17,NW,313,0.0,0.0,82,0.00,,,0.00,Wunderground v.1.13,2013-04-29 10:32:00,
2013-04-29 06:37:00,39.3,34.6,30.17,NW,313,0.0,0.0,83,0.00,,,0.00,Wunderground v.1.13,2013-04-29 10:37:00,
2013-04-29 06:42:00,39.5,35.1,30.17,NW,313,0.0,0.0,84,0.00,,,0.00,Wunderground v.1.13,2013-04-29 10:42:00,
2013-04-29 06:47:00,39.8,35.4,30.17,NW,313,0.0,0.0,84,0.00,,,0.00,Wunderground v.1.13,2013-04-29 10:47:00,
2013-04-29 06:52:00,39.9,35.2,30.17,NW,313,0.0,0.0,83,0.00,,,0.00,Wunderground v.1.13,2013-04-29 10:52:00,
2013-04-29 06:57:00,40.1,35.0,30.17,NW,313,0.0,0.0,82,0.00,,,0.00,Wunderground v.1.13,2013-04-29 10:57:00,
2013-04-29 07:02:00,40.1,34.7,30.17,NW,313,0.0,0.0,81,0.00,,,0.00,Wunderground v.1.13,2013-04-29 11:02:00,
2013-04-29 07:07:00,40.2,34.8,30.17,NW,313,0.0,0.0,81,0.00,,,0.00,Wunderground v.1.13,2013-04-29 11:07:00,
2013-04-29 07:12:00,40.3,34.6,30.17,NW,313,0.0,0.0,80,0.00,,,0.00,Wunderground v.1.13,2013-04-29 11:12:00,
2013-04-29 07:17:00,40.5,34.5,30.17,NW,313,0.0,0.0,79,0.00,,,0.00,Wunderground v.1.13,2013-04-29 11:17:00,
2013-04-29 07:22:00,40.8,34.1,30.18,NW,313,0.0,0.0,77,0.00,,,0.00,Wunderground v.1.13,2013-04-29 11:22:00,
2013-04-29 07:27:00,41.1,33.4,30.18,NW,313,0.0,0.0,74,0.00,,,0.00,Wunderground v.1.13,2013-04-29 11:27:00,
2013-04-29 07:32:00,41.3,32.6,30.18,NW,313,0.0,0.0,71,0.00,,,0.00,Wunderground v.1.13,2013-04-29 11:32:00,
2013-04-29 07:37:00,41.8,31.6,30.18,NW,313,0.0,0.0,67,0.00,,,0.00,Wunderground v.1.13,2013-04-29 11:37:00,
2013-04-29 07:42:00,42.1,28.4,30.18,NW,313,0.0,0.0,58,0.00,,,0.00,Wunderground v.1.13,2013-04-29 11:42:00,
2013-04-29 07:47:00,42.5,24.2,30.18,NW,313,0.0,0.0,48,0.00,,,0.00,Wunderground v.1.13,2013-04-29 11:47:00,
2013-04-29 07:52:00,43.1,20.4,30.18,NW,313,0.0,0.0,40,0.00,,,0.00,Wunderground v.1.13,2013-04-29 11:52:00,
2013-04-29 07:57:00,43.6,18.4,30.18,NW,313,0.0,0.0,36,0.00,,,0.00,Wunderground v.1.13,2013-04-29 11:57:00,
2013-04-29 08:02:00,44.9,13.7,30.18,NW,313,0.0,0.0,28,0.00,,,0.00,Wunderground v.1.13,2013-04-29 12:02:00,
2013-04-29 08:07:00,46.2,9.4,30.17,NW,313,0.0,3.0,22,0.00,,,0.00,Wunderground v.1.13,2013-04-29 12:07:00,
2013-04-29 08:12:00,47.1,-9.0,30.17,NW,313,1.0,1.0,9,0.00,,,0.00,Wunderground v.1.13,2013-04-29 12:12:00,
2013-04-29 08:17:00,47.7,-29.8,30.17,NW,313,1.0,1.0,3,0.00,,,0.00,Wunderground v.1.13,2013-04-29 12:17:00,
2013-04-29 08:22:00,48.5,-99.9,30.17,NW,313,1.0,3.0,0,0.00,,,0.00,Wunderground v.1.13,2013-04-29 12:22:00,
2013-04-29 08:27:00,48.9,-99.9,30.17,NW,313,1.0,1.0,0,0.00,,,0.00,Wunderground v.1.13,2013-04-29 12:27:00,
2013-04-29 08:32:00,49.6,-99.9,30.17,NW,313,1.0,1.0,0,0.00,,,0.00,Wunderground v.1.13,2013-04-29 12:32:00,
2013-04-29 08:37:00,50.4,-99.9,30.17,NW,313,1.0,1.0,0,0.00,,,0.00,Wunderground v.1.13,2013-04-29 12:37:00,
2013-04-29 08:42:00,51.0,-99.9,30.17,NW,313,1.0,2.0,0,0.00,,,0.00,Wunderground v.1.13,2013-04-29 12:42:00,
2013-04-29 08:47:00,51.6,-99.9,30.17,NW,313,1.0,1.0,0,0.00,,,0.00,Wunderground v.1.13,2013-04-29 12:47:00,
2013-04-29 08:52:00,52.0,-99.9,30.16,NW,313,1.0,2.0,0,0.00,,,0.00,Wunderground v.1.13,2013-04-29 12:52:00,
2013-04-29 08:57:00,52.6,-99.9,30.16,NW,313,2.0,2.0,0,0.00,,,0.00,Wunderground v.1.13,2013-04-29 12:57:00,
2013-04-29 09:02:00,53.2,-99.9,30.16,NW,304,2.0,2.0,0,0.00,,,0.00,Wunderground v.1.13,2013-04-29 13:02:00,
2013-04-29 09:07:00,53.5,-99.9,30.16,West,271,2.0,2.0,0,0.00,,,0.00,Wunderground v.1.13,2013-04-29 13:07:00,
2013-04-29 09:12:00,54.4,-99.9,30.16,West,271,1.0,1.0,0,0.00,,,0.00,Wunderground v.1.13,2013-04-29 13:12:00,
2013-04-29 09:17:00,54.8,54.8,30.16,West,272,1.0,2.0,100,0.00,,,0.00,Wunderground v.1.13,2013-04-29 13:17:00,
2013-04-29 09:22:00,55.3,55.3,30.16,WNW,292,2.0,3.0,100,0.00,,,0.00,Wunderground v.1.13,2013-04-29 13:22:00,
2013-04-29 09:27:00,55.7,55.7,30.16,West,272,2.0,2.0,100,0.00,,,0.00,Wunderground v.1.13,2013-04-29 13:27:00,
2013-04-29 09:32:00,56.2,56.2,30.16,West,272,1.0,3.0,100,0.00,,,0.00,Wunderground v.1.13,2013-04-29 13:32:00,
2013-04-29 09:37:00,57.0,57.0,30.15,WNW,301,1.0,6.0,100,0.00,,,0.00,Wunderground v.1.13,2013-04-29 13:37:00,
2013-04-29 09:42:00,57.8,57.8,30.15,WNW,301,2.0,2.0,100,0.00,,,0.00,Wunderground v.1.13,2013-04-29 13:42:00,
2013-04-29 09:47:00,58.7,58.7,30.15,WNW,301,2.0,2.0,100,0.00,,,0.00,Wunderground v.1.13,2013-04-29 13:47:00,
2013-04-29 09:52:00,59.6,59.6,30.15,WNW,296,1.0,3.0,100,0.00,,,0.00,Wunderground v.1.13,2013-04-29 13:52:00,
2013-04-29 09:57:00,60.1,60.1,30.15,WNW,296,1.0,1.0,100,0.00,,,0.00,Wunderground v.1.13,2013-04-29 13:57:00,
2013-04-29 10:02:00,60.7,60.7,30.15,West,272,1.0,1.0,100,0.00,,,0.00,Wunderground v.1.13,2013-04-29 14:02:00,
2013-04-29 10:07:00,60.9,60.9,30.14,SE,130,1.0,1.0,100,0.00,,,0.00,Wunderground v.1.13,2013-04-29 14:07:00,
2013-04-29 10:12:00,61.5,61.5,30.14,NW,312,1.0,1.0,100,0.00,,,0.00,Wunderground v.1.13,2013-04-29 14:12:00,
2013-04-29 10:17:00,62.0,62.0,30.14,ESE,120,3.0,6.0,100,0.00,,,0.00,Wunderground v.1.13,2013-04-29 14:17:00,
2013-04-29 10:22:00,62.0,62.0,30.14,ESE,107,4.0,4.0,100,0.00,,,0.00,Wunderground v.1.13,2013-04-29 14:22:00,
2013-04-29 10:27:00,62.7,62.7,30.14,East,85,4.0,4.0,100,0.00,,,0.00,Wunderground v.1.13,2013-04-29 14:27:00,
2013-04-29 10:32:00,62.4,62.4,30.14,North,0,4.0,4.0,100,0.00,,,0.00,Wunderground v.1.13,2013-04-29 14:32:00,
2013-04-29 10:37:00,62.9,62.9,30.14,NE,54,4.0,5.0,100,0.00,,,0.00,Wunderground v.1.13,2013-04-29 14:37:00,
2013-04-29 10:42:00,63.2,63.2,30.14,ENE,72,4.0,6.0,100,0.00,,,0.00,Wunderground v.1.13,2013-04-29 14:42:00,
2013-04-29 10:52:00,63.2,63.2,30.14,East,80,4.0,4.0,100,0.00,,,0.00,Wunderground v.1.13,2013-04-29 14:52:00,
2013-04-29 11:02:00,64.3,64.3,30.14,NNE,20,3.0,3.0,100,0.00,,,0.00,Wunderground v.1.13,2013-04-29 15:02:00,
2013-04-29 11:07:00,65.2,65.2,30.13,ESE,121,2.0,2.0,100,0.00,,,0.00,Wunderground v.1.13,2013-04-29 15:07:00,
2013-04-29 11:12:00,65.2,65.2,30.13,NNE,31,2.0,2.0,100,0.00,,,0.00,Wunderground v.1.13,2013-04-29 15:12:00,
2013-04-29 11:17:00,65.2,65.2,30.13,WNW,301,5.0,5.0,100,0.00,,,0.00,Wunderground v.1.13,2013-04-29 15:17:00,
2013-04-29 11:22:00,65.2,65.2,30.13,ESE,117,6.0,6.0,100,0.00,,,0.00,Wunderground v.1.13,2013-04-29 15:22:00,
2013-04-29 11:27:00,65.2,65.2,30.13,ENE,65,5.0,6.0,100,0.00,,,0.00,Wunderground v.1.13,2013-04-29 15:27:00,
2013-04-29 11:32:00,65.6,65.6,30.13,NE,49,3.0,3.0,100,0.00,,,0.00,Wunderground v.1.13,2013-04-29 15:32:00,
2013-04-29 11:42:00,67.6,67.6,30.13,NE,38,2.0,3.0,100,0.00,,,0.00,Wunderground v.1.13,2013-04-29 15:42:00,
2013-04-29 11:47:00,67.1,67.1,30.13,North,359,3.0,3.0,100,0.00,,,0.00,Wunderground v.1.13,2013-04-29 15:47:00,
2013-04-29 11:52:00,67.1,67.1,30.12,North,357,3.0,3.0,100,0.00,,,0.00,Wunderground v.1.13,2013-04-29 15:52:00,
2013-04-29 11:57:00,66.9,66.9,30.12,NNW,343,3.0,3.0,100,0.00,,,0.00,Wunderground v.1.13,2013-04-29 15:57:00,
2013-04-29 12:02:00,67.1,67.1,30.12,NNW,335,5.0,6.0,100,0.00,,,0.00,Wunderground v.1.13,2013-04-29 16:02:00,
2013-04-29 12:07:00,66.9,66.9,30.12,NNW,340,6.0,6.0,100,0.00,,,0.00,Wunderground v.1.13,2013-04-29 16:07:00,
2013-04-29 12:12:00,67.4,67.4,30.12,NE,48,6.0,8.0,100,0.00,,,0.00,Wunderground v.1.13,2013-04-29 16:12:00,
2013-04-29 12:17:00,66.9,66.9,30.12,ENE,64,4.0,6.0,100,0.00,,,0.00,Wunderground v.1.13,2013-04-29 16:17:00,
2013-04-29 12:22:00,66.9,66.9,30.11,ESE,116,4.0,8.0,100,0.00,,,0.00,Wunderground v.1.13,2013-04-29 16:22:00,
2013-04-29 12:27:00,67.3,67.3,30.11,WNW,292,6.0,6.0,100,0.00,,,0.00,Wunderground v.1.13,2013-04-29 16:27:00,
2013-04-29 12:32:00,67.8,67.8,30.11,North,6,6.0,6.0,100,0.00,,,0.00,Wunderground v.1.13,2013-04-29 16:32:00,
2013-04-29 12:37:00,68.3,68.3,30.11,North,3,5.0,6.0,100,0.00,,,0.00,Wunderground v.1.13,2013-04-29 16:37:00,
2013-04-29 12:42:00,68.1,68.1,30.11,NE,51,4.0,4.0,100,0.00,,,0.00,Wunderground v.1.13,2013-04-29 16:42:00,
2013-04-29 12:47:00,68.4,68.4,30.11,ENE,58,4.0,5.0,100,0.00,,,0.00,Wunderground v.1.13,2013-04-29 16:47:00,
2013-04-29 12:52:00,68.1,68.1,30.11,ESE,117,5.0,5.0,100,0.00,,,0.00,Wunderground v.1.13,2013-04-29 16:52:00,
2013-04-29 13:02:00,67.4,67.4,30.11,North,357,4.0,6.0,100,0.00,,,0.00,Wunderground v.1.13,2013-04-29 17:02:00,
2013-04-29 13:07:00,68.1,68.1,30.10,WNW,299,4.0,15.0,100,0.00,,,0.00,Wunderground v.1.13,2013-04-29 17:07:00,
2013-04-29 13:12:00,68.6,68.6,30.10,WNW,288,6.0,6.0,100,0.00,,,0.00,Wunderground v.1.13,2013-04-29 17:12:00,
2013-04-29 13:17:00,68.8,68.8,30.10,NE,34,6.0,6.0,100,0.00,,,0.00,Wunderground v.1.13,2013-04-29 17:17:00,
2013-04-29 13:22:00,68.4,68.4,30.10,North,0,5.0,5.0,100,0.00,,,0.00,Wunderground v.1.13,2013-04-29 17:22:00,
2013-04-29 13:27:00,67.9,67.9,30.10,NE,40,4.0,6.0,100,0.00,,,0.00,Wunderground v.1.13,2013-04-29 17:27:00,
2013-04-29 13:32:00,67.9,67.9,30.10,North,350,3.0,3.0,100,0.00,,,0.00,Wunderground v.1.13,2013-04-29 17:32:00,
2013-04-29 13:37:00,68.6,68.6,30.10,NE,47,4.0,12.0,100,0.00,,,0.00,Wunderground v.1.13,2013-04-29 17:37:00,
2013-04-29 13:42:00,67.8,67.8,30.10,NE,40,6.0,6.0,100,0.00,,,0.00,Wunderground v.1.13,2013-04-29 17:42:00,
2013-04-29 13:47:00,67.4,67.4,30.10,North,353,5.0,5.0,100,0.00,,,0.00,Wunderground v.1.13,2013-04-29 17:47:00,
2013-04-29 13:52:00,67.6,67.6,30.09,NW,312,4.0,4.0,100,0.00,,,0.00,Wunderground v.1.13,2013-04-29 17:52:00,
2013-04-29 13:57:00,67.6,67.6,30.09,North,359,4.0,4.0,100,0.00,,,0.00,Wunderground v.1.13,2013-04-29 17:57:00,
2013-04-29 14:02:00,67.4,67.4,30.09,WNW,288,3.0,3.0,100,0.00,,,0.00,Wunderground v.1.13,2013-04-29 18:02:00,
2013-04-29 14:12:00,68.9,68.9,30.09,East,93,2.0,6.0,100,0.00,,,0.00,Wunderground v.1.13,2013-04-29 18:12:00,
2013-04-29 14:17:00,69.4,69.4,30.09,NNE,16,4.0,7.0,100,0.00,,,0.00,Wunderground v.1.13,2013-04-29 18:17:00,
2013-04-29 14:22:00,69.6,69.6,30.08,SSW,210,4.0,4.0,100,0.00,,,0.00,Wunderground v.1.13,2013-04-29 18:22:00,
2013-04-29 14:27:00,69.6,69.6,30.08,NNW,339,5.0,5.0,100,0.00,,,0.00,Wunderground v.1.13,2013-04-29 18:27:00,
2013-04-29 14:32:00,69.4,69.4,30.08,West,274,5.0,5.0,100,0.00,,,0.00,Wunderground v.1.13,2013-04-29 18:32:00,
2013-04-29 14:37:00,69.3,69.3,30.07,NNE,16,3.0,10.0,100,0.00,,,0.00,Wunderground v.1.13,2013-04-29 18:37:00,
2013-04-29 14:42:00,69.1,69.1,30.07,WNW,288,4.0,5.0,100,0.00,,,0.00,Wunderground v.1.13,2013-04-29 18:42:00,
2013-04-29 14:47:00,69.1,69.1,30.07,NW,319,5.0,5.0,100,0.00,,,0.00,Wunderground v.1.13,2013-04-29 18:47:00,
2013-04-29 14:52:00,69.1,69.1,30.08,NNW,337,6.0,6.0,100,0.00,,,0.00,Wunderground v.1.13,2013-04-29 18:52:00,
2013-04-29 14:57:00,68.9,68.9,30.08,NNW,330,6.0,6.0,100,0.00,,,0.00,Wunderground v.1.13,2013-04-29 18:57:00,
2013-04-29 15:02:00,69.3,69.3,30.08,NNW,329,5.0,7.0,100,0.00,,,0.00,Wunderground v.1.13,2013-04-29 19:02:00,
2013-04-29 15:12:00,69.1,69.1,30.07,NNW,339,7.0,7.0,100,0.00,,,0.00,Wunderground v.1.13,2013-04-29 19:12:00,
2013-04-29 15:22:00,68.8,68.8,30.07,NNW,346,5.0,5.0,100,0.00,,,0.00,Wunderground v.1.13,2013-04-29 19:22:00,
2013-04-29 15:27:00,68.6,68.6,30.07,NNW,346,6.0,6.0,100,0.00,,,0.00,Wunderground v.1.13,2013-04-29 19:27:00,
2013-04-29 15:32:00,68.4,68.4,30.07,NW,319,7.0,7.0,100,0.00,,,0.00,Wunderground v.1.13,2013-04-29 19:32:00,
2013-04-29 15:37:00,68.6,68.6,30.07,West,265,7.0,7.0,100,0.00,,,0.00,Wunderground v.1.13,2013-04-29 19:37:00,
2013-04-29 15:42:00,68.4,68.4,30.07,NW,308,7.0,7.0,100,0.00,,,0.00,Wunderground v.1.13,2013-04-29 19:42:00,
2013-04-29 15:47:00,68.6,68.6,30.07,NNW,340,6.0,6.0,100,0.00,,,0.00,Wunderground v.1.13,2013-04-29 19:47:00,
2013-04-29 15:52:00,68.6,68.6,30.06,NW,306,4.0,4.0,100,0.00,,,0.00,Wunderground v.1.13,2013-04-29 19:52:00,
2013-04-29 15:57:00,68.6,68.6,30.06,North,359,4.0,4.0,100,0.00,,,0.00,Wunderground v.1.13,2013-04-29 19:57:00,
2013-04-29 16:02:00,68.6,68.6,30.06,NNE,23,3.0,3.0,100,0.00,,,0.00,Wunderground v.1.13,2013-04-29 20:02:00,
2013-04-29 16:12:00,68.8,68.8,30.06,NW,325,5.0,5.0,100,0.00,,,0.00,Wunderground v.1.13,2013-04-29 20:12:00,
2013-04-29 16:17:00,68.9,68.9,30.06,West,281,4.0,4.0,100,0.00,,,0.00,Wunderground v.1.13,2013-04-29 20:17:00,
2013-04-29 16:22:00,69.1,69.1,30.06,NW,322,3.0,6.0,100,0.00,,,0.00,Wunderground v.1.13,2013-04-29 20:22:00,
2013-04-29 16:27:00,68.8,68.8,30.06,NNW,342,5.0,5.0,100,0.00,,,0.00,Wunderground v.1.13,2013-04-29 20:27:00,
2013-04-29 16:32:00,68.6,68.6,30.06,North,350,4.0,4.0,100,0.00,,,0.00,Wunderground v.1.13,2013-04-29 20:32:00,
2013-04-29 16:37:00,68.6,68.6,30.06,SW,224,3.0,5.0,100,0.00,,,0.00,Wunderground v.1.13,2013-04-29 20:37:00,
2013-04-29 16:42:00,68.4,68.4,30.06,NNE,25,3.0,4.0,100,0.00,,,0.00,Wunderground v.1.13,2013-04-29 20:42:00,
2013-04-29 16:47:00,68.3,68.3,30.06,WNW,287,4.0,4.0,100,0.00,,,0.00,Wunderground v.1.13,2013-04-29 20:47:00,
2013-04-29 16:52:00,68.3,68.3,30.06,North,357,5.0,8.0,100,0.00,,,0.00,Wunderground v.1.13,2013-04-29 20:52:00,
2013-04-29 16:57:00,68.3,68.3,30.06,ENE,76,4.0,4.0,100,0.00,,,0.00,Wunderground v.1.13,2013-04-29 20:57:00,
2013-04-29 17:03:00,68.3,68.3,30.06,NNE,28,2.0,2.0,100,0.00,,,0.00,Wunderground v.1.13,2013-04-29 21:03:00,
2013-04-29 17:12:00,68.4,68.4,30.06,WNW,288,3.0,3.0,100,0.00,,,0.00,Wunderground v.1.13,2013-04-29 21:12:00,
2013-04-29 17:17:00,68.4,68.4,30.06,NW,319,4.0,4.0,100,0.00,,,0.00,Wunderground v.1.13,2013-04-29 21:17:00,
2013-04-29 17:22:00,68.4,68.4,30.07,NNW,332,4.0,4.0,100,0.00,,,0.00,Wunderground v.1.13,2013-04-29 21:22:00,
2013-04-29 17:27:00,68.4,68.4,30.07,NNW,339,3.0,11.0,100,0.00,,,0.00,Wunderground v.1.13,2013-04-29 21:27:00,
2013-04-29 17:32:00,68.4,68.4,30.07,NE,48,3.0,3.0,100,0.00,,,0.00,Wunderground v.1.13,2013-04-29 21:32:00,
2013-04-29 17:37:00,67.9,67.9,30.07,NE,42,4.0,6.0,100,0.00,,,0.00,Wunderground v.1.13,2013-04-29 21:37:00,
2013-04-29 17:42:00,67.3,67.3,30.07,ESE,107,5.0,7.0,100,0.00,,,0.00,Wunderground v.1.13,2013-04-29 21:42:00,
2013-04-29 17:47:00,66.4,66.4,30.07,ENE,76,5.0,5.0,100,0.00,,,0.00,Wunderground v.1.13,2013-04-29 21:47:00,
2013-04-29 17:52:00,65.5,65.5,30.08,East,79,6.0,6.0,100,0.00,,,0.00,Wunderground v.1.13,2013-04-29 21:52:00,
2013-04-29 17:57:00,65.2,65.2,30.08,ENE,58,6.0,6.0,100,0.00,,,0.00,Wunderground v.1.13,2013-04-29 21:57:00,
2013-04-29 18:02:00,64.7,64.7,30.08,ENE,58,5.0,5.0,100,0.00,,,0.00,Wunderground v.1.13,2013-04-29 22:02:00,
2013-04-29 18:07:00,64.5,64.5,30.09,East,99,5.0,5.0,100,0.00,,,0.00,Wunderground v.1.13,2013-04-29 22:07:00,
2013-04-29 18:12:00,64.2,64.2,30.09,ENE,75,5.0,6.0,100,0.00,,,0.00,Wunderground v.1.13,2013-04-29 22:12:00,
2013-04-29 18:17:00,63.9,63.9,30.09,East,93,4.0,4.0,100,0.00,,,0.00,Wunderground v.1.13,2013-04-29 22:17:00,
2013-04-29 18:22:00,63.9,63.9,30.09,NW,326,3.0,5.0,100,0.00,,,0.00,Wunderground v.1.13,2013-04-29 22:22:00,
2013-04-29 18:32:00,63.5,63.5,30.09,NE,55,2.0,3.0,100,0.00,,,0.00,Wunderground v.1.13,2013-04-29 22:32:00,
2013-04-29 18:37:00,63.4,63.4,30.09,NNE,18,2.0,2.0,100,0.00,,,0.00,Wunderground v.1.13,2013-04-29 22:37:00,
2013-04-29 18:42:00,63.4,63.4,30.09,ESE,117,2.0,7.0,100,0.00,,,0.00,Wunderground v.1.13,2013-04-29 22:42:00,
2013-04-29 18:47:00,63.1,63.1,30.09,NE,38,3.0,3.0,100,0.00,,,0.00,Wunderground v.1.13,2013-04-29 22:47:00,
2013-04-29 18:52:00,62.9,62.9,30.10,NE,41,4.0,4.0,100,0.00,,,0.00,Wunderground v.1.13,2013-04-29 22:52:00,
2013-04-29 18:57:00,62.7,62.7,30.10,ESE,109,4.0,4.0,100,0.00,,,0.00,Wunderground v.1.13,2013-04-29 22:57:00,
2013-04-29 19:02:00,62.4,62.4,30.10,East,100,5.0,6.0,100,0.00,,,0.00,Wunderground v.1.13,2013-04-29 23:02:00,
2013-04-29 19:12:00,62.1,62.1,30.10,ENE,66,4.0,6.0,100,0.00,,,0.00,Wunderground v.1.13,2013-04-29 23:12:00,
2013-04-29 19:17:00,62.0,62.0,30.10,ENE,71,3.0,3.0,100,0.00,,,0.00,Wunderground v.1.13,2013-04-29 23:17:00,
2013-04-29 19:22:00,61.8,61.8,30.10,ENE,58,3.0,3.0,100,0.00,,,0.00,Wunderground v.1.13,2013-04-29 23:22:00,
2013-04-29 19:27:00,61.6,61.6,30.10,North,8,2.0,2.0,100,0.00,,,0.00,Wunderground v.1.13,2013-04-29 23:27:00,
2013-04-29 19:32:00,61.5,61.5,30.10,North,10,2.0,2.0,100,0.00,,,0.00,Wunderground v.1.13,2013-04-29 23:32:00,
2013-04-29 19:37:00,61.5,61.5,30.11,North,10,1.0,1.0,100,0.00,,,0.00,Wunderground v.1.13,2013-04-29 23:37:00,
2013-04-29 19:42:00,61.2,61.2,30.11,East,90,1.0,1.0,100,0.00,,,0.00,Wunderground v.1.13,2013-04-29 23:42:00,
2013-04-29 19:47:00,61.0,61.0,30.11,East,90,2.0,4.0,100,0.00,,,0.00,Wunderground v.1.13,2013-04-29 23:47:00,
2013-04-29 19:52:00,60.9,60.9,30.11,East,92,1.0,1.0,100,0.00,,,0.00,Wunderground v.1.13,2013-04-29 23:52:00,
2013-04-29 19:57:00,60.5,60.5,30.11,ESE,107,1.0,3.0,100,0.00,,,0.00,Wunderground v.1.13,2013-04-29 23:57:00,
2013-04-29 20:02:00,60.4,60.4,30.11,ESE,107,1.0,1.0,100,0.00,,,0.00,Wunderground v.1.13,2013-04-30 00:02:00,
2013-04-29 20:07:00,60.2,60.2,30.11,ESE,107,1.0,1.0,100,0.00,,,0.00,Wunderground v.1.13,2013-04-30 00:07:00,
2013-04-29 20:12:00,60.1,60.1,30.11,ESE,107,0.0,0.0,100,0.00,,,0.00,Wunderground v.1.13,2013-04-30 00:12:00,
2013-04-29 20:17:00,59.9,59.9,30.11,ESE,107,0.0,0.0,100,0.00,,,0.00,Wunderground v.1.13,2013-04-30 00:17:00,
2013-04-29 20:22:00,59.8,59.8,30.12,ESE,106,1.0,2.0,100,0.00,,,0.00,Wunderground v.1.13,2013-04-30 00:22:00,
2013-04-29 20:27:00,59.6,59.6,30.12,ESE,106,1.0,1.0,100,0.00,,,0.00,Wunderground v.1.13,2013-04-30 00:27:00,
2013-04-29 20:32:00,59.6,59.6,30.12,ESE,106,0.0,0.0,100,0.00,,,0.00,Wunderground v.1.13,2013-04-30 00:32:00,
2013-04-29 20:37:00,59.5,59.5,30.12,ESE,104,0.0,0.0,100,0.00,,,0.00,Wunderground v.1.13,2013-04-30 00:37:00,
2013-04-29 20:42:00,59.3,59.3,30.12,ESE,104,0.0,0.0,100,0.00,,,0.00,Wunderground v.1.13,2013-04-30 00:42:00,
2013-04-29 20:47:00,59.3,59.3,30.12,ESE,104,0.0,0.0,100,0.00,,,0.00,Wunderground v.1.13,2013-04-30 00:47:00,
2013-04-29 20:52:00,59.3,59.3,30.13,ESE,104,0.0,0.0,100,0.00,,,0.00,Wunderground v.1.13,2013-04-30 00:52:00,
2013-04-29 20:57:00,59.2,59.2,30.13,ESE,104,0.0,0.0,100,0.00,,,0.00,Wunderground v.1.13,2013-04-30 00:57:00,
2013-04-29 21:03:00,59.0,59.0,30.13,ESE,104,0.0,0.0,100,0.00,,,0.00,Wunderground v.1.13,2013-04-30 01:03:00,
2013-04-29 21:07:00,58.9,58.9,30.13,East,82,0.0,2.0,100,0.00,,,0.00,Wunderground v.1.13,2013-04-30 01:07:00,
2013-04-29 21:12:00,58.9,58.9,30.13,East,82,1.0,1.0,100,0.00,,,0.00,Wunderground v.1.13,2013-04-30 01:12:00,
2013-04-29 21:17:00,58.7,58.7,30.13,NE,55,1.0,2.0,100,0.00,,,0.00,Wunderground v.1.13,2013-04-30 01:17:00,
2013-04-29 21:22:00,58.7,58.7,30.14,East,79,2.0,2.0,100,0.00,,,0.00,Wunderground v.1.13,2013-04-30 01:22:00,
2013-04-29 21:27:00,58.6,58.6,30.14,East,97,2.0,2.0,100,0.00,,,0.00,Wunderground v.1.13,2013-04-30 01:27:00,
2013-04-29 21:32:00,58.6,58.6,30.14,East,97,2.0,2.0,100,0.00,,,0.00,Wunderground v.1.13,2013-04-30 01:32:00,
2013-04-29 21:37:00,58.4,58.4,30.14,East,97,1.0,1.0,100,0.00,,,0.00,Wunderground v.1.13,2013-04-30 01:37:00,
2013-04-29 21:42:00,58.4,58.4,30.14,East,97,1.0,1.0,100,0.00,,,0.00,Wunderground v.1.13,2013-04-30 01:42:00,
2013-04-29 21:47:00,58.3,58.3,30.14,East,97,0.0,0.0,100,0.00,,,0.00,Wunderground v.1.13,2013-04-30 01:47:00,
2013-04-29 21:52:00,58.3,58.3,30.14,East,97,0.0,0.0,100,0.00,,,0.00,Wunderground v.1.13,2013-04-30 01:52:00,
2013-04-29 21:57:00,58.1,58.1,30.14,East,97,0.0,0.0,100,0.00,,,0.00,Wunderground v.1.13,2013-04-30 01:57:00,
2013-04-29 22:03:00,58.1,58.1,30.14,East,97,0.0,0.0,100,0.00,,,0.00,Wunderground v.1.13,2013-04-30 02:03:00,
2013-04-29 22:07:00,58.0,58.0,30.14,East,97,0.0,0.0,100,0.00,,,0.00,Wunderground v.1.13,2013-04-30 02:07:00,
2013-04-29 22:12:00,58.0,58.0,30.14,East,97,0.0,0.0,100,0.00,,,0.00,Wunderground v.1.13,2013-04-30 02:12:00,
2013-04-29 22:17:00,57.8,57.8,30.14,East,97,0.0,0.0,100,0.00,,,0.00,Wunderground v.1.13,2013-04-30 02:17:00,
2013-04-29 22:22:00,57.8,57.8,30.14,East,97,0.0,0.0,100,0.00,,,0.00,Wunderground v.1.13,2013-04-30 02:22:00,
2013-04-29 22:27:00,57.8,57.8,30.14,East,97,0.0,0.0,100,0.00,,,0.00,Wunderground v.1.13,2013-04-30 02:27:00,
2013-04-29 22:37:00,57.5,57.5,30.14,ESE,104,1.0,1.0,100,0.00,,,0.00,Wunderground v.1.13,2013-04-30 02:37:00,
2013-04-29 22:42:00,57.3,57.3,30.14,ESE,107,2.0,2.0,100,0.00,,,0.00,Wunderground v.1.13,2013-04-30 02:42:00,
2013-04-29 22:47:00,57.3,57.3,30.14,ESE,107,1.0,2.0,100,0.00,,,0.00,Wunderground v.1.13,2013-04-30 02:47:00,
2013-04-29 22:52:00,57.3,57.3,30.14,ENE,66,1.0,1.0,100,0.00,,,0.00,Wunderground v.1.13,2013-04-30 02:52:00,
2013-04-29 22:57:00,57.3,57.3,30.14,ENE,66,1.0,1.0,100,0.00,,,0.00,Wunderground v.1.13,2013-04-30 02:57:00,
2013-04-29 23:03:00,57.3,57.3,30.14,ENE,66,0.0,0.0,100,0.00,,,0.00,Wunderground v.1.13,2013-04-30 03:03:00,
2013-04-29 23:12:00,57.0,57.0,30.15,ENE,66,0.0,2.0,100,0.00,,,0.00,Wunderground v.1.13,2013-04-30 03:12:00,
2013-04-29 23:17:00,57.0,57.0,30.15,ENE,68,1.0,1.0,100,0.00,,,0.00,Wunderground v.1.13,2013-04-30 03:17:00,
2013-04-29 23:22:00,57.0,57.0,30.14,ENE,66,1.0,1.0,100,0.00,,,0.00,Wunderground v.1.13,2013-04-30 03:22:00,
2013-04-29 23:27:00,57.0,57.0,30.14,ENE,66,0.0,2.0,100,0.00,,,0.00,Wunderground v.1.13,2013-04-30 03:27:00,
2013-04-29 23:32:00,56.9,56.9,30.14,ENE,66,0.0,0.0,100,0.00,,,0.00,Wunderground v.1.13,2013-04-30 03:32:00,
2013-04-29 23:37:00,56.7,56.7,30.14,ENE,66,0.0,0.0,100,0.00,,,0.00,Wunderground v.1.13,2013-04-30 03:37:00,
2013-04-29 23:42:00,56.7,56.7,30.14,ENE,66,0.0,0.0,100,0.00,,,0.00,Wunderground v.1.13,2013-04-30 03:42:00,
2013-04-29 23:47:00,56.6,56.6,30.14,ENE,66,0.0,0.0,100,0.00,,,0.00,Wunderground v.1.13,2013-04-30 03:47:00,
2013-04-29 23:52:00,56.6,56.6,30.14,ENE,66,0.0,0.0,100,0.00,,,0.00,Wunderground v.1.13,2013-04-30 03:52:00,
2013-04-29 23:57:00,56.5,56.5,30.14,ENE,66,0.0,0.0,100,0.00,,,0.00,Wunderground v.1.13,2013-04-30 03:57:00,